This is the latest recevied weather packets stored in our database for station/object AC5CM. If no packets are shown the sender has not sent any weather packets the latest 1 day(s).
| Time | Temp. | Humidity | Pressure | Rain* | Wind** | Luminosity | Snow |
|---|---|---|---|---|---|---|---|
| 1778013703 | 28.89° C | 73% | 1009.2 hPa | 0 mm | 0.45 m/s, 140° | - | - |
| 1778013400 | 28.89° C | 73% | 1009.3 hPa | 0 mm | 1.79 m/s, 166° | - | - |
| 1778013096 | 29.44° C | 72% | 1009.4 hPa | 0 mm | 0.89 m/s, 51° | - | - |
| 1778012792 | 29.44° C | 72% | 1009.3 hPa | 0 mm | 1.34 m/s, 89° | - | - |
| 1778012488 | 28.89° C | 73% | 1009.7 hPa | 0 mm | 0.45 m/s, 101° | - | - |
| 1778012185 | 28.89° C | 74% | 1009.4 hPa | 0 mm | 1.79 m/s, 142° | - | - |
| 1778011883 | 28.89° C | 74% | 1009.5 hPa | 0 mm | 2.24 m/s, 160° | - | - |
| 1778011581 | 28.89° C | 75% | 1009.7 hPa | 0 mm | 1.34 m/s, 102° | - | - |
| 1778011278 | 28.89° C | 74% | 1009.7 hPa | 0 mm | 1.34 m/s, 103° | - | - |
| 1778010974 | 28.89° C | 75% | 1009.6 hPa | 0 mm | 1.34 m/s, 215° | - | - |
| 1778010671 | 28.89° C | 75% | 1009.6 hPa | 0 mm | 1.34 m/s, 99° | - | - |
| 1778010368 | 28.89° C | 73% | 1009.7 hPa | 0 mm | 0.45 m/s, 25° | - | - |
| 1778010064 | 28.33° C | 74% | 1009.8 hPa | 0 mm | 1.79 m/s, 176° | - | - |
| 1778009761 | 28.33° C | 74% | 1010 hPa | 0 mm | 0.89 m/s, 125° | - | - |
| 1778009458 | 28.33° C | 74% | 1010 hPa | 0 mm | 0.89 m/s, 173° | - | - |
| 1778009157 | 28.33° C | 74% | 1009.9 hPa | 0 mm | 1.34 m/s, 126° | - | - |
| 1778008854 | 28.33° C | 75% | 1010 hPa | 0 mm | 1.34 m/s, 169° | - | - |
| 1778008552 | 28.33° C | 75% | 1010 hPa | 0 mm | 0.45 m/s, 151° | - | - |
| 1778008249 | 28.33° C | 74% | 1009.8 hPa | 0 mm | 1.34 m/s, 94° | - | - |
| 1778007944 | 28.89° C | 73% | 1009.9 hPa | 0 mm | 0.89 m/s, 15° | - | - |
| 1778007640 | 28.33° C | 75% | 1010.1 hPa | 0 mm | 0.89 m/s, 95° | - | - |
| 1778007337 | 28.33° C | 76% | 1009.9 hPa | 0 mm | 0.89 m/s, 88° | - | - |
| 1778007033 | 28.33° C | 76% | 1010 hPa | 0 mm | 1.79 m/s, 116° | - | - |
| 1778006730 | 28.33° C | 77% | 1010.1 hPa | 0 mm | 0.45 m/s, 116° | - | - |
| 1778006427 | 28.33° C | 76% | 1010.3 hPa | 0 mm | 1.34 m/s, 46° | - | - |
* Rain latest hour (hover to see other rain measurements)
** Current wind speed in m/s (hover to see current wind gust speed)